Location: Asheville, NC
(35.6000°N, 82.5500°W)
Time: 02:22:08
(UTC-04:00)

Tiangong 2 - Pass Details

Date: 16 March 2018
Orbit: 291 x 297 km, 42.8° (Epoch: 20 June)

Event Time Altitude Azimuth Distance (km) Brightness Sun altitude
Exits shadow 07:01:51 13° 269° (W) 1,061 2.6 -8.5°
Maximum altitude 07:04:04 41° 339° (NNW) 470 1.4 -8.0°
Drops below altitude 10° 07:06:42 10° 52° (NE) 1,222 4.6 -7.5°
Sets 07:08:46 0° 60° (ENE) 2,068 6.1 -7.1°
